Regional Weather Roundup
Issued by NWS

Home | Current Version | Previous Version | Graphics & Text | Print | Product List | Glossary On
Versions: 1 2 3 4 5 6 7 8 9 10 11 12 13 14 15 16 17 18 19 20 21 22 23 24 25 26 27 28 29 30 31 32 33 34 35 36 37 38 39 40 41 42 43 44 45 46 47 48 49 50
000
ASUS43 KOAX 240110
RWRNE

WEATHER ROUNDUP FOR NEBRASKA
NATIONAL WEATHER SERVICE OMAHA NE
800 PM CDT THU MAR 23 2017

NOTES: SATELLITE DATA IS BEING USED TO AUGMENT CLOUD COVER ABOVE
       12000 FEET.
       "FAIR" INDICATES FEW OR NO CLOUDS BELOW 12,000 FEET WITH NO
       SIGNIFICANT WEATHER AND/OR OBSTRUCTIONS TO VISIBILITY.

  * THESE STATIONS DO NOT REPORT WEATHER SUCH AS RAIN...SNOW OR FOG.

NEZ001>004-019>022-054>056-240200-
NEBRASKA PANHANDLE

CITY           SKY/WX    TMP DP  RH WIND       PRES   REMARKS
SCOTTSBLUFF    CLOUDY    52  44  74 N26G38    29.65R
ALLIANCE       CLOUDY    52  42  69 N31G38    29.66S
CHADRON        LGT RAIN  47  43  86 N21G30    29.79R
KIMBALL        CLOUDY    60  39  46 N15G23    29.65R
SIDNEY         LGT RAIN  62  37  39 N23G40    29.59R
$$

NEZ057>060-069>072-079>082-240200-
SOUTHWEST NEBRASKA

CITY           SKY/WX    TMP DP  RH WIND       PRES   REMARKS
NORTH PLATTE   TSTM      67  53  61 SE14G25   29.52R
IMPERIAL       CLOUDY    73  27  18 SW6       29.46F
LEXINGTON      CLEAR     76  50  39 S21       29.48R
MCCOOK         CLOUDY    79  49  34 S26G37    29.45R
OGALLALA       CLOUDY    70  48  45 E10       29.52R
$$

NEZ005>010-023>029-035>040-094-240200-
NORTH CENTRAL NEBRASKA

CITY           SKY/WX    TMP DP  RH WIND       PRES   REMARKS
VALENTINE      CLOUDY    62  42  47 N5        29.67R
AINSWORTH      PTCLDY    54  49  83 NE7       29.64R
BROKEN BOW     TSTM      59  32  36 N18G25    29.56R
O`NEILL        CLOUDY    55  55  99 NE5       29.64S FOG
ORD            CLOUDY    61  55  81 CALM      29.55S
THEDFORD       MOCLDY    64  51  62 N13       29.60R
$$

NEZ041-046>049-061>064-073>077-083>087-240200-
SOUTH CENTRAL NEBRASKA

CITY           SKY/WX    TMP DP  RH WIND       PRES   REMARKS
GRAND ISLAND   CLEAR     68  58  70 SE20G28   29.55F
AURORA         PTCLDY    68  56  65 S17G25    29.56F
HASTINGS       CLOUDY    69  57  65 S17       29.56F
HEBRON         CLOUDY    71  55  57 S16G24    29.62R
HOLDREGE       CLOUDY    76  48  36 S25G36    29.51R
KEARNEY *      CLOUDY    72  55  56 S24G31    29.52S
YORK           PTCLDY    68  55  64 S18G24    29.59F
$$

NEZ011>018-030>034-042>045-240200-
NORTHEAST NEBRASKA

CITY           SKY/WX    TMP DP  RH WIND       PRES   REMARKS
NORFOLK        CLOUDY    59  50  72 SE12      29.60F
ALBION         CLOUDY    65  55  68 E10       29.58F
BLAIR          CLOUDY    71  52  52 S9        29.66S
FREMONT        CLOUDY    70  53  53 S8G17     29.64S
TEKAMAH        CLOUDY    67  50  54 S14       29.64S
WAYNE          CLOUDY    58  46  66 SE15      29.63F
$$

NEZ050>053-065>068-078-088>093-240200-
SOUTHEAST NEBRASKA

CITY           SKY/WX    TMP DP  RH WIND       PRES   REMARKS
LINCOLN        PTCLDY    71  53  52 S14       29.64F
OMAHA EPPLEY   CLOUDY    73  51  46 S15       29.64F
BEATRICE       CLOUDY    72  53  51 S13G18    29.64S
FALLS CITY     MOCLDY    74  50  42 S15G24    29.69R
NEBRASKA CITY  CLOUDY    73  42  33 S16       29.67F
PLATTSMOUTH    CLOUDY    73  45  37 S14G21    29.66F
$$

NEZ044-045-051>053-067-240200-
OMAHA AREA

CITY           SKY/WX    TMP DP  RH WIND       PRES   REMARKS
OMAHA EPPLEY   CLOUDY    73  51  46 S15       29.64F
BLAIR          CLOUDY    71  52  52 S9        29.66S
FREMONT        CLOUDY    70  53  53 S8G17     29.64S
MILLARD        CLOUDY    73  54  51 S8        29.65F
OFFUTT AFB     CLOUDY    73  51  46 SE10      29.64F
PLATTSMOUTH    CLOUDY    73  45  37 S14G21    29.66F
WAHOO          FAIR      70  52  53 S9        29.64S
$$




USA.gov is the U.S. government's official web portal to all federal, state and local government web resources and services.